Location: Unspecified
(49.9820°N, 20.4363°E)
Time: 22:55:15
(UTC+01:00)

ISS - Pass Details

Date: 12 November 2018
Orbit: 402 x 409 km, 51.6° (Epoch: 13 November)

Event Time Altitude Azimuth Distance (km) Brightness Sun altitude
Exits shadow 04:19:04 31° 136° (SE) 739 -2.2 -23.5°
Drops below altitude 10° 04:20:58 10° 124° (ESE) 1,460 -0.3 -23.2°
Sets 04:23:03 0° 120° (ESE) 2,319 1.0 -22.9°
